Weather History for Whitefield, NH

Change the Weather History Date:

Wednesday, December 19, 2012

  Actual Average Record
Temperature  
Mean Temperature 34 °F -  
Max Temperature 35 °F 28 °F 39 °F (1997)
Min Temperature 33 °F 8 °F -5 °F (1999)
Degree Days  
Heating Degree Days 31    
Moisture  
Dew Point 31 °F    
Average Humidity 89    
Maximum Humidity 96    
Minimum Humidity 81    
Precipitation  
Precipitation 0.15 in - - ()
Sea Level Pressure  
Sea Level Pressure 29.66 in    
Wind  
Wind Speed 4 mph (West)    
Max Wind Speed 6 mph    
Max Gust Speed -    
Visibility 6 miles    
Events Snow    
Averages and records for this station are not official NWS values.
T = Trace of Precipitation, MM = Missing Value Source: NWS Daily Summary

Daily Weather History Graph

Daily Weather History Graph

Search for Another Location

Airport:

Trip Planner

Search our weather history database for the weather conditions in past years. The results will help you decide how hot, cold, wet, or windy it might be!

Date:

Astronomy

Dec. 19, 2012 Rise Set
Actual Time 7:18 AM EST 4:08 PM EST
Civil Twilight 6:44 AM EST 4:42 PM EST
Nautical Twilight 6:07 AM EST 5:19 PM EST
Astronomical Twilight 5:32 AM EST 5:54 PM EST
Moon 11:10 AM EST (12/19) 11:50 PM EST (12/19)
Length of Visible Light 9h 57m
Length of Day
8h 50m
Waxing Crescent, 45% of the Moon is Illuminated
Dec 19
Waxing Crescent
Dec 20
First Quarter
Dec 28
Full
Jan 4
Last Quarter
Jan 11
New

Hourly Weather History & Observations

Time (EST) Temp. Windchill Dew Point Humidity Pressure Visibility Wind Dir Wind Speed Gust Speed Precip Events Conditions
12:40 AM 33.8 °F - 32.0 °F 93% 29.46 in 5.0 mi North - - 0.02 in Snow Light Snow
12:52 AM 33.1 °F - 32.0 °F 96% 29.49 in 5.0 mi North - - 0.03 in Snow Light Snow
1:13 AM 33.8 °F - 32.0 °F 93% 29.46 in 4.0 mi North - - 0.00 in Snow Light Snow
1:43 AM 33.8 °F - 30.2 °F 87% 29.46 in 5.0 mi North - - 0.01 in Snow Light Snow
1:52 AM 33.1 °F - 32.0 °F 96% 29.50 in 5.0 mi North - - 0.01 in Snow Light Snow
2:37 AM 33.8 °F - 32.0 °F 93% 29.48 in 4.0 mi North - - 0.00 in Snow Light Snow
2:50 AM 33.8 °F - 32.0 °F 93% 29.49 in 2.5 mi North - - 0.01 in Snow Light Snow
2:52 AM 33.1 °F - 32.0 °F 96% 29.52 in 2.5 mi North - - 0.01 in Snow Light Snow
3:29 AM 33.8 °F - 32.0 °F 93% 29.50 in 2.0 mi North - - 0.02 in Snow Light Snow
3:36 AM 33.8 °F - 32.0 °F 93% 29.50 in 2.0 mi North - - 0.02 in Snow Light Snow
3:46 AM 33.8 °F - 32.0 °F 93% 29.50 in 3.0 mi North - - 0.02 in Snow Light Snow
3:52 AM 33.1 °F - 32.0 °F 96% 29.53 in 4.0 mi North - - 0.02 in Snow Light Snow
4:14 AM 33.8 °F - 32.0 °F 93% 29.50 in 4.0 mi North - - 0.00 in Snow Light Snow
4:27 AM 33.8 °F - 32.0 °F 93% 29.50 in 6.0 mi North - - 0.00 in Snow Light Snow
4:52 AM 33.1 °F - 32.0 °F 96% 29.55 in 2.5 mi North - - 0.01 in Snow Light Snow
5:26 AM 33.8 °F - 32.0 °F 93% 29.53 in 1.8 mi North - - 0.01 in Snow Light Snow
5:35 AM 33.8 °F - 32.0 °F 93% 29.53 in 1.8 mi North - - 0.01 in Snow Light Snow
5:52 AM 33.1 °F - 32.0 °F 96% 29.57 in 2.0 mi North - - 0.02 in Snow Light Snow
6:07 AM 33.8 °F - 30.2 °F 87% 29.54 in 3.0 mi North - - 0.00 in Snow Light Snow
6:18 AM 33.8 °F - 30.2 °F 87% 29.55 in 2.5 mi North - - 0.01 in Snow Light Snow
6:39 AM 33.8 °F - 30.2 °F 87% 29.56 in 3.0 mi North - - 0.01 in Snow Light Snow
6:47 AM 33.8 °F - 30.2 °F 87% 29.56 in 2.0 mi North - - 0.01 in Snow Light Snow
6:52 AM 33.1 °F - 30.9 °F 92% 29.60 in 2.0 mi North - - 0.01 in Snow Light Snow
7:09 AM 33.8 °F - 30.2 °F 87% 29.57 in 2.5 mi North - - 0.00 in Snow Light Snow
7:34 AM 33.8 °F - 30.2 °F 87% 29.58 in 1.5 mi North - - 0.01 in Snow Light Snow
7:52 AM 33.1 °F - 30.9 °F 92% 29.63 in 1.5 mi North - - 0.01 in Snow Light Snow
8:02 AM 33.8 °F - 30.2 °F 87% 29.60 in 1.0 mi North - - 0.00 in Snow Light Snow
8:14 AM 33.8 °F - 30.2 °F 87% 29.61 in 0.8 mi North - - 0.01 in   Mist
8:32 AM 33.8 °F - 30.2 °F 87% 29.61 in 1.2 mi North - - 0.02 in Snow Light Snow
8:52 AM 33.1 °F - 30.9 °F 92% 29.65 in 1.2 mi North - - 0.02 in Snow Light Snow
9:25 AM 33.8 °F - 30.2 °F 87% 29.63 in 2.5 mi North - - 0.01 in Snow Light Snow
9:33 AM 33.8 °F - 30.2 °F 87% 29.63 in 4.0 mi North - - 0.01 in   Overcast
9:52 AM 34.0 °F - 30.9 °F 89% 29.67 in 6.0 mi North - - 0.01 in   Overcast
10:02 AM 33.8 °F - 30.2 °F 87% 29.64 in 7.0 mi North - - N/A   Overcast
10:52 AM 35.1 °F - 30.9 °F 85% 29.68 in 10.0 mi North - - 0.00 in   Overcast
11:24 AM 35.6 °F - 30.2 °F 81% 29.65 in 10.0 mi North - - N/A   Overcast
11:52 AM 35.1 °F - 30.9 °F 85% 29.70 in 10.0 mi North - - N/A   Overcast
12:04 PM 35.6 °F - 32.0 °F 87% 29.66 in 10.0 mi North - - N/A   Overcast
12:23 PM 35.6 °F - 32.0 °F 87% 29.68 in 10.0 mi North - - N/A   Overcast
12:52 PM 35.1 °F - 32.0 °F 89% 29.73 in 10.0 mi North - - N/A   Overcast
1:11 PM 35.6 °F - 32.0 °F 87% 29.70 in 10.0 mi North - - N/A   Overcast
1:52 PM 35.1 °F - 30.9 °F 85% 29.76 in 10.0 mi North - - N/A   Unknown
2:52 PM 35.1 °F 32.2 °F 32.0 °F 89% 29.81 in 9.0 mi West 3.5 mph - N/A   Overcast
3:52 PM 35.1 °F 30.1 °F 30.9 °F 85% 29.84 in 10.0 mi WNW 5.8 mph - 0.00 in   Overcast
4:52 PM 34.0 °F 28.8 °F 30.0 °F 85% 29.88 in 9.0 mi West 5.8 mph - 0.00 in Snow Light Snow
5:52 PM 34.0 °F - 30.0 °F 85% 29.92 in 10.0 mi Calm Calm - 0.00 in   Overcast
6:07 PM 33.8 °F - 30.2 °F 87% 29.89 in 10.0 mi Calm Calm - N/A   Overcast
6:49 PM 33.8 °F 30.8 °F 30.2 °F 87% 29.90 in 10.0 mi SW 3.5 mph - N/A   Overcast
6:52 PM 34.0 °F 31.0 °F 30.0 °F 85% 29.94 in 10.0 mi WSW 3.5 mph - N/A   Overcast
7:52 PM 34.0 °F 29.8 °F 28.9 °F 82% 29.99 in 10.0 mi WNW 4.6 mph - N/A   Overcast
8:52 PM 33.1 °F 27.7 °F 28.9 °F 85% 30.01 in 10.0 mi WNW 5.8 mph - N/A   Overcast
9:52 PM 34.0 °F 31.0 °F 28.9 °F 82% 30.02 in 10.0 mi West 3.5 mph - N/A   Overcast
10:52 PM 33.1 °F 28.7 °F 28.9 °F 85% 30.04 in 10.0 mi West 4.6 mph - N/A   Overcast
11:52 PM 33.1 °F - 28.9 °F 85% 30.06 in 10.0 mi Calm Calm - N/A   Overcast